• In Uzbekistan
  • List of Countries
  • For 7 days
  • Water Temperature
  • Satellite Maps
  • Weather Map
  • Weather Widgets
  • user-avatar
    Login

    Hourly Weather Batken

    Today, 26 September, Wednesday

    Time Temperature Precipitation Wind Pressure Humidity
    00:00 +18°C° 0 mm 1 mps 671 mmHg 36%
    01:00 +18°C° 0 mm 1 mps 671 mmHg 36%
    02:00 +16°C° 0 mm 1 mps 670 mmHg 35%
    03:00 +16°C° 0 mm 1 mps 670 mmHg 35%
    04:00 +16°C° 0 mm 1 mps 670 mmHg 35%
    05:00 +16°C° 0 mm 1 mps 670 mmHg 33%
    06:00 +18°C° 0 mm 1 mps 670 mmHg 31%
    07:00 +19°C° 0 mm 1 mps 670 mmHg 29%
    08:00 +21°C° 0 mm 1 mps 671 mmHg 27%
    09:00 +22°C° 0 mm 1 mps 671 mmHg 26%
    10:00 +23°C° 0 mm 2 mps 671 mmHg 25%
    11:00 +24°C° 0 mm 2 mps 671 mmHg 25%
    12:00 +25°C° 0 mm 2 mps 671 mmHg 24%
    13:00 +25°C° 0 mm 2 mps 671 mmHg 23%
    14:00 +26°C° 0 mm 3 mps 671 mmHg 23%
    15:00 +25°C° 0 mm 3 mps 671 mmHg 24%
    16:00 +25°C° 0 mm 3 mps 671 mmHg 25%
    17:00 +25°C° 0 mm 3 mps 671 mmHg 26%
    18:00 +23°C° 0 mm 2 mps 671 mmHg 29%
    19:00 +21°C° 0 mm 2 mps 671 mmHg 32%
    20:00 +21°C° 0 mm 1 mps 671 mmHg 34%
    21:00 +20°C° 0 mm 1 mps 671 mmHg 35%
    22:00 +20°C° 0 mm 1 mps 671 mmHg 36%
    23:00 +19°C° 0 mm 1 mps 671 mmHg 37%

    Tomorrow, 27 September, Thursday

    Time Temperature Precipitation Wind Pressure Humidity
    00:00 +19°C° 0 mm 1 mps 671 mmHg 38%
    01:00 +18°C° 0 mm 1 mps 671 mmHg 39%
    02:00 +18°C° 0 mm 1 mps 670 mmHg 39%
    03:00 +18°C° 0 mm 1 mps 671 mmHg 40%
    04:00 +18°C° 0 mm 1 mps 671 mmHg 40%
    05:00 +18°C° 0 mm 1 mps 671 mmHg 40%
    06:00 +17°C° 0 mm 2 mps 671 mmHg 39%
    07:00 +18°C° 0 mm 2 mps 672 mmHg 38%
    08:00 +19°C° 0 mm 3 mps 672 mmHg 36%
    09:00 +20°C° 0 mm 3 mps 672 mmHg 35%
    10:00 +21°C° 0 mm 4 mps 672 mmHg 35%
    11:00 +22°C° 0 mm 4 mps 673 mmHg 34%
    12:00 +22°C° 0 mm 4 mps 672 mmHg 34%
    13:00 +22°C° 0 mm 5 mps 672 mmHg 35%
    14:00 +22°C° 0 mm 5 mps 672 mmHg 36%
    15:00 +22°C° 0.1 mm 4 mps 672 mmHg 38%
    16:00 +21°C° 0.1 mm 3 mps 672 mmHg 40%
    17:00 +20°C° 0.1 mm 3 mps 672 mmHg 42%
    18:00 +20°C° 0.1 mm 2 mps 673 mmHg 44%
    19:00 +20°C° 0.1 mm 2 mps 673 mmHg 45%
    20:00 +20°C° 0.1 mm 1 mps 673 mmHg 46%
    21:00 +20°C° 0 mm 1 mps 673 mmHg 47%
    22:00 +19°C° 0 mm 1 mps 673 mmHg 48%
    23:00 +18°C° 0 mm 1 mps 673 mmHg 48%

    Day after tomorrow, 28 September, Friday

    Time Temperature Precipitation Wind Pressure Humidity
    00:00 +18°C° 0 mm 1 mps 673 mmHg 49%
    01:00 +16°C° 0 mm 1 mps 673 mmHg 50%
    02:00 +16°C° 0 mm 1 mps 673 mmHg 51%
    03:00 +15°C° 0 mm 1 mps 673 mmHg 52%
    04:00 +15°C° 0 mm 1 mps 673 mmHg 53%
    05:00 +14°C° 0 mm 0 mps 673 mmHg 53%
    06:00 +16°C° 0 mm 1 mps 674 mmHg 49%
    07:00 +18°C° 0 mm 1 mps 674 mmHg 46%
    08:00 +19°C° 0 mm 1 mps 675 mmHg 42%
    09:00 +20°C° 0 mm 1 mps 675 mmHg 39%
    10:00 +20°C° 0 mm 2 mps 675 mmHg 36%
    11:00 +23°C° 0 mm 2 mps 675 mmHg 33%
    12:00 +23°C° 0 mm 2 mps 675 mmHg 32%
    13:00 +24°C° 0 mm 2 mps 675 mmHg 31%
    14:00 +25°C° 0 mm 2 mps 675 mmHg 30%
    15:00 +25°C° 0 mm 2 mps 675 mmHg 31%
    16:00 +24°C° 0 mm 2 mps 675 mmHg 32%
    17:00 +24°C° 0 mm 2 mps 675 mmHg 33%
    18:00 +23°C° 0 mm 1 mps 675 mmHg 36%
    19:00 +22°C° 0 mm 1 mps 675 mmHg 40%
    20:00 +20°C° 0 mm 1 mps 676 mmHg 44%
    21:00 +20°C° 0 mm 1 mps 676 mmHg 45%
    22:00 +19°C° 0 mm 1 mps 676 mmHg 47%
    23:00 +17°C° 0 mm 0 mps 675 mmHg 48%

    29 September, Saturday

    Time Temperature Precipitation Wind Pressure Humidity
    00:00 +16°C° 0 mm 0 mps 675 mmHg 49%
    01:00 +16°C° 0 mm 0 mps 675 mmHg 50%
    02:00 +15°C° 0 mm 0 mps 674 mmHg 51%
    03:00 +15°C° 0 mm 0 mps 674 mmHg 52%
    04:00 +14°C° 0 mm 0 mps 674 mmHg 52%
    05:00 +14°C° 0 mm 0 mps 674 mmHg 53%
    06:00 +16°C° 0 mm 1 mps 675 mmHg 49%
    07:00 +18°C° 0 mm 1 mps 675 mmHg 45%
    08:00 +20°C° 0 mm 1 mps 675 mmHg 42%
    09:00 +21°C° 0 mm 1 mps 675 mmHg 38%
    10:00 +21°C° 0 mm 2 mps 675 mmHg 35%
    11:00 +23°C° 0 mm 2 mps 675 mmHg 32%
    12:00 +24°C° 0 mm 2 mps 674 mmHg 31%
    13:00 +24°C° 0 mm 2 mps 674 mmHg 30%
    14:00 +25°C° 0 mm 2 mps 674 mmHg 29%
    15:00 +25°C° 0 mm 2 mps 674 mmHg 29%
    16:00 +25°C° 0 mm 2 mps 674 mmHg 30%
    17:00 +24°C° 0 mm 1 mps 673 mmHg 31%
    18:00 +23°C° 0 mm 1 mps 673 mmHg 34%
    19:00 +22°C° 0 mm 1 mps 673 mmHg 38%
    20:00 +20°C° 0 mm 1 mps 674 mmHg 41%
    21:00 +20°C° 0 mm 1 mps 673 mmHg 42%
    22:00 +19°C° 0 mm 1 mps 673 mmHg 43%
    23:00 +19°C° 0 mm 1 mps 673 mmHg 44%

    30 September, Sunday

    Time Temperature Precipitation Wind Pressure Humidity
    00:00 +18°C° 0 mm 1 mps 672 mmHg 44%
    01:00 +18°C° 0 mm 1 mps 672 mmHg 44%
    02:00 +16°C° 0 mm 1 mps 672 mmHg 44%
    03:00 +15°C° 0 mm 0 mps 672 mmHg 44%
    04:00 +15°C° 0 mm 0 mps 671 mmHg 44%
    05:00 +14°C° 0 mm 0 mps 671 mmHg 43%
    06:00 +16°C° 0 mm 0 mps 672 mmHg 39%
    07:00 +17°C° 0 mm 0 mps 672 mmHg 35%
    08:00 +19°C° 0 mm 0 mps 672 mmHg 31%
    09:00 +22°C° 0 mm 1 mps 672 mmHg 29%
    10:00 +23°C° 0 mm 1 mps 672 mmHg 27%
    11:00 +24°C° 0 mm 2 mps 672 mmHg 25%
    12:00 +25°C° 0 mm 2 mps 672 mmHg 25%
    13:00 +25°C° 0 mm 2 mps 671 mmHg 24%
    14:00 +26°C° 0 mm 2 mps 671 mmHg 23%
    15:00 +26°C° 0 mm 2 mps 671 mmHg 24%
    16:00 +25°C° 0 mm 2 mps 671 mmHg 25%
    17:00 +25°C° 0 mm 1 mps 671 mmHg 26%
    18:00 +24°C° 0 mm 1 mps 671 mmHg 30%
    19:00 +22°C° 0 mm 1 mps 671 mmHg 34%
    20:00 +21°C° 0 mm 1 mps 671 mmHg 37%
    21:00 +20°C° 0 mm 1 mps 671 mmHg 37%
    22:00 +20°C° 0 mm 1 mps 671 mmHg 37%
    23:00 +19°C° 0 mm 1 mps 671 mmHg 38%

    1 October, Monday

    Time Temperature Precipitation Wind Pressure Humidity
    00:00 +19°C° 0 mm 1 mps 671 mmHg 37%
    01:00 +18°C° 0 mm 1 mps 670 mmHg 37%
    02:00 +16°C° 0 mm 0 mps 670 mmHg 36%
    03:00 +15°C° 0 mm 0 mps 670 mmHg 36%
    04:00 +15°C° 0 mm 0 mps 670 mmHg 36%
    05:00 +15°C° 0 mm 0 mps 670 mmHg 35%
    06:00 +16°C° 0 mm 0 mps 671 mmHg 32%
    07:00 +17°C° 0 mm 0 mps 671 mmHg 28%
    08:00 +19°C° 0 mm 0 mps 672 mmHg 25%
    09:00 +22°C° 0 mm 1 mps 672 mmHg 24%
    10:00 +23°C° 0 mm 2 mps 672 mmHg 23%
    11:00 +24°C° 0 mm 2 mps 672 mmHg 22%
    12:00 +25°C° 0 mm 2 mps 672 mmHg 22%
    13:00 +26°C° 0 mm 3 mps 672 mmHg 21%
    14:00 +26°C° 0 mm 3 mps 672 mmHg 21%
    15:00 +26°C° 0 mm 3 mps 672 mmHg 22%
    16:00 +25°C° 0 mm 3 mps 672 mmHg 23%
    17:00 +25°C° 0 mm 3 mps 672 mmHg 24%
    18:00 +24°C° 0 mm 2 mps 673 mmHg 28%
    19:00 +23°C° 0 mm 2 mps 673 mmHg 31%
    20:00 +20°C° 0 mm 2 mps 673 mmHg 34%
    21:00 +20°C° 0 mm 2 mps 673 mmHg 34%
    22:00 +20°C° 0 mm 2 mps 673 mmHg 35%
    23:00 +19°C° 0 mm 2 mps 673 mmHg 36%
    Show more